Year,Month,Day,Hour,Minute,Value (Times are PST for temperature in C)
2010,05,24,00,00,8.80
2010,05,24,00,01,8.80
2010,05,24,00,02,8.70
2010,05,24,00,03,8.70
2010,05,24,00,04,8.70
2010,05,24,00,05,8.60
2010,05,24,00,06,8.60
2010,05,24,00,07,8.60
2010,05,24,00,08,8.50
2010,05,24,00,09,8.50
2010,05,24,00,10,8.40
2010,05,24,00,11,8.40
2010,05,24,00,12,8.40
2010,05,24,00,13,8.30
2010,05,24,00,14,8.30
2010,05,24,00,15,8.20
2010,05,24,00,16,8.20
2010,05,24,00,17,8.20
2010,05,24,00,18,8.10
2010,05,24,00,19,8.10
2010,05,24,00,20,8.10
2010,05,24,00,21,8.00
2010,05,24,00,22,8.00
2010,05,24,00,23,8.00
2010,05,24,00,24,7.90
2010,05,24,00,25,7.90
2010,05,24,00,26,7.90
2010,05,24,00,27,7.90
2010,05,24,00,28,7.80
2010,05,24,00,29,7.80
2010,05,24,00,30,7.80
2010,05,24,00,31,7.80
2010,05,24,00,32,7.80
2010,05,24,00,33,7.70
2010,05,24,00,34,7.70
2010,05,24,00,35,7.70
2010,05,24,00,36,7.70
2010,05,24,00,37,7.70
2010,05,24,00,38,7.60
2010,05,24,00,39,7.60
2010,05,24,00,40,7.50
2010,05,24,00,41,7.40
2010,05,24,00,42,7.40
2010,05,24,00,43,7.30
2010,05,24,00,44,7.30
2010,05,24,00,45,7.30
2010,05,24,00,46,7.30
2010,05,24,00,47,7.30
2010,05,24,00,48,7.20
2010,05,24,00,49,7.20
2010,05,24,00,50,7.20
2010,05,24,00,51,7.20
2010,05,24,00,52,7.20
2010,05,24,00,53,7.20
2010,05,24,00,54,7.20
2010,05,24,00,55,7.10
2010,05,24,00,56,7.10
2010,05,24,00,57,7.10
2010,05,24,00,58,7.10
2010,05,24,00,59,7.10
2010,05,24,01,00,7.00
2010,05,24,01,01,7.00
2010,05,24,01,02,7.00
2010,05,24,01,03,6.90
2010,05,24,01,04,6.90
2010,05,24,01,05,6.90
2010,05,24,01,06,6.90
2010,05,24,01,07,6.80
2010,05,24,01,08,6.80
2010,05,24,01,09,6.80
2010,05,24,01,10,6.80
2010,05,24,01,11,6.80
2010,05,24,01,12,6.80
2010,05,24,01,13,6.80
2010,05,24,01,14,6.70
2010,05,24,01,15,6.70
2010,05,24,01,16,6.70
2010,05,24,01,17,6.70
2010,05,24,01,18,6.70
2010,05,24,01,19,6.60
2010,05,24,01,20,6.60
2010,05,24,01,21,6.60
2010,05,24,01,22,6.60
2010,05,24,01,23,6.60
2010,05,24,01,24,6.60
2010,05,24,01,25,6.50
2010,05,24,01,26,6.50
2010,05,24,01,27,6.50
2010,05,24,01,28,6.50
2010,05,24,01,29,6.50
2010,05,24,01,30,6.50
2010,05,24,01,31,6.60
2010,05,24,01,32,6.60
2010,05,24,01,33,6.60
2010,05,24,01,34,6.60
2010,05,24,01,35,6.60
2010,05,24,01,36,6.60
2010,05,24,01,37,6.60
2010,05,24,01,38,6.60
2010,05,24,01,39,6.60
2010,05,24,01,40,6.60
2010,05,24,01,41,6.60
2010,05,24,01,42,6.60
2010,05,24,01,43,6.70
2010,05,24,01,44,6.70
2010,05,24,01,45,6.70
2010,05,24,01,46,6.70
2010,05,24,01,47,6.70
2010,05,24,01,48,6.80
2010,05,24,01,49,6.80
2010,05,24,01,50,6.80
2010,05,24,01,51,6.80
2010,05,24,01,52,6.80
2010,05,24,01,53,6.80
2010,05,24,01,54,6.90
2010,05,24,01,55,6.90
2010,05,24,01,56,6.90
2010,05,24,01,57,6.90
2010,05,24,01,58,6.90
2010,05,24,01,59,6.90
2010,05,24,02,00,6.90
2010,05,24,02,01,6.90
2010,05,24,02,02,6.90
2010,05,24,02,03,6.90
2010,05,24,02,04,7.00
2010,05,24,02,05,7.00
2010,05,24,02,06,7.10
2010,05,24,02,07,7.10
2010,05,24,02,08,7.10
2010,05,24,02,09,7.20
2010,05,24,02,10,7.20
2010,05,24,02,11,7.20
2010,05,24,02,12,7.20
2010,05,24,02,13,7.20
2010,05,24,02,14,7.20
2010,05,24,02,15,7.20
2010,05,24,02,16,7.20
2010,05,24,02,17,7.20
2010,05,24,02,18,7.20
2010,05,24,02,19,7.20
2010,05,24,02,20,7.30
2010,05,24,02,21,7.30
2010,05,24,02,22,7.30
2010,05,24,02,23,7.30
2010,05,24,02,24,7.30
2010,05,24,02,25,7.30
2010,05,24,02,26,7.30
2010,05,24,02,27,7.30
2010,05,24,02,28,7.30
2010,05,24,02,29,7.30
2010,05,24,02,30,7.30
2010,05,24,02,31,7.30
2010,05,24,02,32,7.30
2010,05,24,02,33,7.30
2010,05,24,02,34,7.30
2010,05,24,02,35,7.30
2010,05,24,02,36,7.30
2010,05,24,02,37,7.30
2010,05,24,02,38,7.30
2010,05,24,02,39,7.30
2010,05,24,02,40,7.30
2010,05,24,02,41,7.30
2010,05,24,02,42,7.30
2010,05,24,02,43,7.30
2010,05,24,02,44,7.30
2010,05,24,02,45,7.30
2010,05,24,02,46,7.30
2010,05,24,02,47,7.30
2010,05,24,02,48,7.30
2010,05,24,02,49,7.30
2010,05,24,02,50,7.30
2010,05,24,02,51,7.30
2010,05,24,02,52,7.30
2010,05,24,02,53,7.30
2010,05,24,02,54,7.30
2010,05,24,02,55,7.30
2010,05,24,02,56,7.30
2010,05,24,02,57,7.30
2010,05,24,02,58,7.20
2010,05,24,02,59,7.20
2010,05,24,03,00,7.20
2010,05,24,03,01,7.20
2010,05,24,03,02,7.20
2010,05,24,03,03,7.20
2010,05,24,03,04,7.20
2010,05,24,03,05,7.20
2010,05,24,03,06,7.10
2010,05,24,03,07,7.10
2010,05,24,03,08,7.10
2010,05,24,03,09,7.10
2010,05,24,03,10,7.00
2010,05,24,03,11,7.00
2010,05,24,03,12,7.00
2010,05,24,03,13,7.00
2010,05,24,03,14,6.90
2010,05,24,03,15,6.90
2010,05,24,03,16,6.90
2010,05,24,03,17,6.90
2010,05,24,03,18,6.90
2010,05,24,03,19,6.90
2010,05,24,03,20,6.90
2010,05,24,03,21,6.90
2010,05,24,03,22,6.90
2010,05,24,03,23,6.90
2010,05,24,03,24,6.90
2010,05,24,03,25,6.80
2010,05,24,03,26,6.80
2010,05,24,03,27,6.80
2010,05,24,03,28,6.80
2010,05,24,03,29,6.80
2010,05,24,03,30,6.80
2010,05,24,03,31,6.80
2010,05,24,03,32,6.80
2010,05,24,03,33,6.80
2010,05,24,03,34,6.70
2010,05,24,03,35,6.70
2010,05,24,03,36,6.70
2010,05,24,03,37,6.70
2010,05,24,03,38,6.70
2010,05,24,03,39,6.70
2010,05,24,03,40,6.70
2010,05,24,03,41,6.70
2010,05,24,03,42,6.60
2010,05,24,03,43,6.60
2010,05,24,03,44,6.60
2010,05,24,03,45,6.60
2010,05,24,03,46,6.60
2010,05,24,03,47,6.60
2010,05,24,03,48,6.50
2010,05,24,03,49,6.50
2010,05,24,03,50,6.50
2010,05,24,03,51,6.50
2010,05,24,03,52,6.50
2010,05,24,03,53,6.40
2010,05,24,03,54,6.40
2010,05,24,03,55,6.40
2010,05,24,03,56,6.40
2010,05,24,03,57,6.40
2010,05,24,03,58,6.40
2010,05,24,03,59,6.40
2010,05,24,04,00,6.40
2010,05,24,04,01,6.40
2010,05,24,04,02,6.40
2010,05,24,04,03,6.40
2010,05,24,04,04,6.40
2010,05,24,04,05,6.40
2010,05,24,04,06,6.40
2010,05,24,04,07,6.30
2010,05,24,04,08,6.30
2010,05,24,04,09,6.30
2010,05,24,04,10,6.30
2010,05,24,04,11,6.30
2010,05,24,04,12,6.30
2010,05,24,04,13,6.30
2010,05,24,04,14,6.30
2010,05,24,04,15,6.30
2010,05,24,04,16,6.30
2010,05,24,04,17,6.30
2010,05,24,04,18,6.30
2010,05,24,04,19,6.30
2010,05,24,04,20,6.20
2010,05,24,04,21,6.20
2010,05,24,04,22,6.20
2010,05,24,04,23,6.20
2010,05,24,04,24,6.20
2010,05,24,04,25,6.20
2010,05,24,04,26,6.20
2010,05,24,04,27,6.20
2010,05,24,04,28,6.20
2010,05,24,04,29,6.20
2010,05,24,04,30,6.10
2010,05,24,04,31,6.10
2010,05,24,04,32,6.10
2010,05,24,04,33,6.10
2010,05,24,04,34,6.10
2010,05,24,04,35,6.10
2010,05,24,04,36,6.10
2010,05,24,04,37,6.10
2010,05,24,04,38,6.10
2010,05,24,04,39,6.10
2010,05,24,04,40,6.10
2010,05,24,04,41,6.10
2010,05,24,04,42,6.10
2010,05,24,04,43,6.10
2010,05,24,04,44,6.10
2010,05,24,04,45,6.10
2010,05,24,04,46,6.10
2010,05,24,04,47,6.10
2010,05,24,04,48,6.10
2010,05,24,04,49,6.10
2010,05,24,04,50,6.10
2010,05,24,04,51,6.00
2010,05,24,04,52,6.00
2010,05,24,04,53,6.00
2010,05,24,04,54,6.00
2010,05,24,04,55,5.90
2010,05,24,04,56,5.90
2010,05,24,04,57,5.90
2010,05,24,04,58,5.90
2010,05,24,04,59,5.90
2010,05,24,05,00,5.90
2010,05,24,05,01,5.90
2010,05,24,05,02,5.90
2010,05,24,05,03,5.80
2010,05,24,05,04,5.80
2010,05,24,05,05,5.80
2010,05,24,05,06,5.80
2010,05,24,05,07,5.80
2010,05,24,05,08,5.80
2010,05,24,05,09,5.80
2010,05,24,05,10,5.80
2010,05,24,05,11,5.90
2010,05,24,05,12,5.80
2010,05,24,05,13,5.80
2010,05,24,05,14,5.80
2010,05,24,05,15,5.80
2010,05,24,05,16,5.80
2010,05,24,05,17,5.80
2010,05,24,05,18,5.80
2010,05,24,05,19,5.80
2010,05,24,05,20,5.80
2010,05,24,05,21,5.80
2010,05,24,05,22,5.80
2010,05,24,05,23,5.80
2010,05,24,05,24,5.80
2010,05,24,05,25,5.80
2010,05,24,05,26,5.80
2010,05,24,05,27,5.90
2010,05,24,05,28,5.90
2010,05,24,05,29,5.90
2010,05,24,05,30,5.90
2010,05,24,05,31,5.90
2010,05,24,05,32,6.00
2010,05,24,05,33,6.00
2010,05,24,05,34,6.00
2010,05,24,05,35,6.00
2010,05,24,05,36,6.00
2010,05,24,05,37,6.00
2010,05,24,05,38,6.00
2010,05,24,05,39,6.00
2010,05,24,05,40,6.00
2010,05,24,05,41,6.00
2010,05,24,05,42,6.10
2010,05,24,05,43,6.10
2010,05,24,05,44,6.10
2010,05,24,05,45,6.10
2010,05,24,05,46,6.10
2010,05,24,05,47,6.10
2010,05,24,05,48,6.10
2010,05,24,05,49,6.20
2010,05,24,05,50,6.20
2010,05,24,05,51,6.20
2010,05,24,05,52,6.20
2010,05,24,05,53,6.30
2010,05,24,05,54,6.30
2010,05,24,05,55,6.40
2010,05,24,05,56,6.50
2010,05,24,05,57,6.50
2010,05,24,05,58,6.60
2010,05,24,05,59,6.60
2010,05,24,06,00,6.70
2010,05,24,06,01,6.70
2010,05,24,06,02,6.80
2010,05,24,06,03,6.80
2010,05,24,06,04,6.90
2010,05,24,06,05,6.90
2010,05,24,06,06,7.00
2010,05,24,06,07,7.00
2010,05,24,06,08,7.10
2010,05,24,06,09,7.10
2010,05,24,06,10,7.10
2010,05,24,06,11,7.20
2010,05,24,06,12,7.20
2010,05,24,06,13,7.30
2010,05,24,06,14,7.30
2010,05,24,06,15,7.40
2010,05,24,06,16,7.40
2010,05,24,06,17,7.50
2010,05,24,06,18,7.60
2010,05,24,06,19,7.60
2010,05,24,06,20,7.70
2010,05,24,06,21,7.80
2010,05,24,06,22,7.80
2010,05,24,06,23,7.90
2010,05,24,06,24,7.90
2010,05,24,06,25,8.00
2010,05,24,06,26,8.00
2010,05,24,06,27,8.10
2010,05,24,06,28,8.10
2010,05,24,06,29,8.20
2010,05,24,06,30,8.20
2010,05,24,06,31,8.20
2010,05,24,06,32,8.20
2010,05,24,06,33,8.20
2010,05,24,06,34,8.20
2010,05,24,06,35,8.30
2010,05,24,06,36,8.30
2010,05,24,06,37,8.40
2010,05,24,06,38,8.50
2010,05,24,06,39,8.60
2010,05,24,06,40,8.70
2010,05,24,06,41,8.80
2010,05,24,06,42,8.90
2010,05,24,06,43,9.10
2010,05,24,06,44,9.10
2010,05,24,06,45,9.20
2010,05,24,06,46,9.30
2010,05,24,06,47,9.40
2010,05,24,06,48,9.50
2010,05,24,06,49,9.60
2010,05,24,06,50,9.60
2010,05,24,06,51,9.70
2010,05,24,06,52,9.70
2010,05,24,06,53,9.80
2010,05,24,06,54,9.80
2010,05,24,06,55,9.80
2010,05,24,06,56,9.80
2010,05,24,06,57,9.80
2010,05,24,06,58,9.80
2010,05,24,06,59,9.80
2010,05,24,07,00,9.80
2010,05,24,07,01,9.80
2010,05,24,07,02,9.80
2010,05,24,07,03,9.80
2010,05,24,07,04,9.80
2010,05,24,07,05,9.80
2010,05,24,07,06,9.90
2010,05,24,07,07,9.90
2010,05,24,07,08,9.90
2010,05,24,07,09,9.90
2010,05,24,07,10,10.00
2010,05,24,07,11,10.00
2010,05,24,07,12,10.00
2010,05,24,07,13,10.10
2010,05,24,07,14,10.10
2010,05,24,07,15,10.10
2010,05,24,07,16,10.10
2010,05,24,07,17,10.20
2010,05,24,07,18,10.20
2010,05,24,07,19,10.20
2010,05,24,07,20,10.20
2010,05,24,07,21,10.30
2010,05,24,07,22,10.30
2010,05,24,07,23,10.30
2010,05,24,07,24,10.30
2010,05,24,07,25,10.30
2010,05,24,07,26,10.30
2010,05,24,07,27,10.30
2010,05,24,07,28,10.30
2010,05,24,07,29,10.30
2010,05,24,07,30,10.30
2010,05,24,07,31,10.30
2010,05,24,07,32,10.30
2010,05,24,07,33,10.30
2010,05,24,07,34,10.30
2010,05,24,07,35,10.30
2010,05,24,07,36,10.40
2010,05,24,07,37,10.40
2010,05,24,07,38,10.40
2010,05,24,07,39,10.40
2010,05,24,07,40,10.40
2010,05,24,07,41,10.40
2010,05,24,07,42,10.50
2010,05,24,07,43,10.50
2010,05,24,07,44,10.50
2010,05,24,07,45,10.40
2010,05,24,07,46,10.40
2010,05,24,07,47,10.30
2010,05,24,07,48,10.30
2010,05,24,07,49,10.20
2010,05,24,07,50,10.20
2010,05,24,07,51,10.10
2010,05,24,07,52,10.10
2010,05,24,07,53,10.10
2010,05,24,07,54,10.10
2010,05,24,07,55,10.10
2010,05,24,07,56,10.10
2010,05,24,07,57,10.10
2010,05,24,07,58,10.10
2010,05,24,07,59,10.10
2010,05,24,08,00,10.10
2010,05,24,08,01,10.20
2010,05,24,08,02,10.20
2010,05,24,08,03,10.30
2010,05,24,08,04,10.30
2010,05,24,08,05,10.40
2010,05,24,08,06,10.40
2010,05,24,08,07,10.50
2010,05,24,08,08,10.60
2010,05,24,08,09,10.70
2010,05,24,08,10,10.80
2010,05,24,08,11,10.80
2010,05,24,08,12,10.90
2010,05,24,08,13,11.00
2010,05,24,08,14,11.00
2010,05,24,08,15,11.00
2010,05,24,08,16,11.10
2010,05,24,08,17,11.10
2010,05,24,08,18,11.20
2010,05,24,08,19,11.20
2010,05,24,08,20,11.20
2010,05,24,08,21,11.20
2010,05,24,08,22,11.20
2010,05,24,08,23,11.30
2010,05,24,08,24,11.30
2010,05,24,08,25,11.30
2010,05,24,08,26,11.30
2010,05,24,08,27,11.30
2010,05,24,08,28,11.30
2010,05,24,08,29,11.30
2010,05,24,08,30,11.20
2010,05,24,08,31,11.20
2010,05,24,08,32,11.10
2010,05,24,08,33,11.00
2010,05,24,08,34,10.90
2010,05,24,08,35,10.80
2010,05,24,08,36,10.80
2010,05,24,08,37,10.70
2010,05,24,08,38,10.70
2010,05,24,08,39,10.70
2010,05,24,08,40,10.60
2010,05,24,08,41,10.60
2010,05,24,08,42,10.60
2010,05,24,08,43,10.60
2010,05,24,08,44,10.60
2010,05,24,08,45,10.70
2010,05,24,08,46,10.70
2010,05,24,08,47,10.80
2010,05,24,08,48,10.80
2010,05,24,08,49,10.90
2010,05,24,08,50,11.00
2010,05,24,08,51,11.00
2010,05,24,08,52,11.00
2010,05,24,08,53,11.00
2010,05,24,08,54,10.90
2010,05,24,08,55,10.90
2010,05,24,08,56,10.80
2010,05,24,08,57,10.80
2010,05,24,08,58,10.70
2010,05,24,08,59,10.70
2010,05,24,09,00,10.70
2010,05,24,09,01,10.60
2010,05,24,09,02,10.60
2010,05,24,09,03,10.60
2010,05,24,09,04,10.60
2010,05,24,09,05,10.60
2010,05,24,09,06,10.50
2010,05,24,09,07,10.60
2010,05,24,09,08,10.60
2010,05,24,09,09,10.50
2010,05,24,09,10,10.50
2010,05,24,09,11,10.50
2010,05,24,09,12,10.50
2010,05,24,09,13,10.40
2010,05,24,09,14,10.40
2010,05,24,09,15,10.40
2010,05,24,09,16,10.40
2010,05,24,09,17,10.40
2010,05,24,09,18,10.40
2010,05,24,09,19,10.40
2010,05,24,09,20,10.40
2010,05,24,09,21,10.40
2010,05,24,09,22,10.30
2010,05,24,09,23,10.30
2010,05,24,09,24,10.30
2010,05,24,09,25,10.30
2010,05,24,09,26,10.30
2010,05,24,09,27,10.30
2010,05,24,09,28,10.30
2010,05,24,09,29,10.30
2010,05,24,09,30,10.30
2010,05,24,09,31,10.30
2010,05,24,09,32,10.30
2010,05,24,09,33,10.20
2010,05,24,09,34,10.20
2010,05,24,09,35,10.20
2010,05,24,09,36,10.20
2010,05,24,09,37,10.20
2010,05,24,09,38,10.30
2010,05,24,09,39,10.30
2010,05,24,09,40,10.30
2010,05,24,09,41,10.40
2010,05,24,09,42,10.40
2010,05,24,09,43,10.40
2010,05,24,09,44,10.40
2010,05,24,09,45,10.40
2010,05,24,09,46,10.50
2010,05,24,09,47,10.50
2010,05,24,09,48,10.50
2010,05,24,09,49,10.60
2010,05,24,09,50,10.70
2010,05,24,09,51,10.70
2010,05,24,09,52,10.70
2010,05,24,09,53,10.80
2010,05,24,09,54,10.90
2010,05,24,09,55,10.90
2010,05,24,09,56,11.00
2010,05,24,09,57,11.10
2010,05,24,09,58,11.20
2010,05,24,09,59,11.30
2010,05,24,10,00,11.30
2010,05,24,10,01,11.40
2010,05,24,10,02,11.40
2010,05,24,10,03,11.50
2010,05,24,10,04,11.50
2010,05,24,10,05,11.60
2010,05,24,10,06,11.60
2010,05,24,10,07,11.60
2010,05,24,10,08,11.60
2010,05,24,10,09,11.70
2010,05,24,10,10,11.70
2010,05,24,10,11,11.80
2010,05,24,10,12,11.90
2010,05,24,10,13,12.00
2010,05,24,10,14,12.10
2010,05,24,10,15,12.20
2010,05,24,10,16,12.20
2010,05,24,10,17,12.20
2010,05,24,10,18,12.20
2010,05,24,10,19,12.20
2010,05,24,10,20,12.20
2010,05,24,10,21,12.10
2010,05,24,10,22,12.00
2010,05,24,10,23,11.90
2010,05,24,10,24,11.90
2010,05,24,10,25,11.80
2010,05,24,10,26,11.90
2010,05,24,10,27,11.90
2010,05,24,10,28,11.90
2010,05,24,10,29,12.00
2010,05,24,10,30,12.10
2010,05,24,10,31,12.10
2010,05,24,10,32,12.10
2010,05,24,10,33,12.20
2010,05,24,10,34,12.20
2010,05,24,10,35,12.20
2010,05,24,10,36,12.30
2010,05,24,10,37,12.30
2010,05,24,10,38,12.30
2010,05,24,10,39,12.40
2010,05,24,10,40,12.40
2010,05,24,10,41,12.40
2010,05,24,10,42,12.50
2010,05,24,10,43,12.50
2010,05,24,10,44,12.60
2010,05,24,10,45,12.60
2010,05,24,10,46,12.60
2010,05,24,10,47,12.70
2010,05,24,10,48,12.70
2010,05,24,10,49,12.70
2010,05,24,10,50,12.60
2010,05,24,10,51,12.60
2010,05,24,10,52,12.50
2010,05,24,10,53,12.40
2010,05,24,10,54,12.40
2010,05,24,10,55,12.30
2010,05,24,10,56,12.30
2010,05,24,10,57,12.30
2010,05,24,10,58,12.30
2010,05,24,10,59,12.30
2010,05,24,11,00,12.30
2010,05,24,11,01,12.20
2010,05,24,11,02,12.20
2010,05,24,11,03,12.30
2010,05,24,11,04,12.30
2010,05,24,11,05,12.30
2010,05,24,11,06,12.30
2010,05,24,11,07,12.30
2010,05,24,11,08,12.40
2010,05,24,11,09,12.40
2010,05,24,11,10,12.40
2010,05,24,11,11,12.50
2010,05,24,11,12,12.60
2010,05,24,11,13,12.70
2010,05,24,11,14,12.70
2010,05,24,11,15,12.60
2010,05,24,11,16,12.60
2010,05,24,11,17,12.60
2010,05,24,11,18,12.60
2010,05,24,11,19,12.60
2010,05,24,11,20,12.60
2010,05,24,11,21,12.70
2010,05,24,11,22,12.80
2010,05,24,11,23,12.80
2010,05,24,11,24,12.90
2010,05,24,11,25,12.90
2010,05,24,11,26,12.80
2010,05,24,11,27,12.80
2010,05,24,11,28,12.80
2010,05,24,11,29,12.80
2010,05,24,11,30,12.80
2010,05,24,11,31,12.90
2010,05,24,11,32,12.90
2010,05,24,11,33,12.90
2010,05,24,11,34,12.90
2010,05,24,11,35,12.90
2010,05,24,11,36,12.90
2010,05,24,11,37,12.80
2010,05,24,11,38,12.70
2010,05,24,11,39,12.70
2010,05,24,11,40,12.60
2010,05,24,11,41,12.60
2010,05,24,11,42,12.60
2010,05,24,11,43,12.60
2010,05,24,11,44,12.60
2010,05,24,11,45,12.60
2010,05,24,11,46,12.70
2010,05,24,11,47,12.80
2010,05,24,11,48,12.80
2010,05,24,11,49,12.90
2010,05,24,11,50,13.00
2010,05,24,11,51,13.10
2010,05,24,11,52,13.20
2010,05,24,11,53,13.20
2010,05,24,11,54,13.30
2010,05,24,11,55,13.30
2010,05,24,11,56,13.40
2010,05,24,11,57,13.40
2010,05,24,11,58,13.50
2010,05,24,11,59,13.50
2010,05,24,12,00,13.40
2010,05,24,12,01,13.30
2010,05,24,12,02,13.20
2010,05,24,12,03,13.10
2010,05,24,12,04,13.10
2010,05,24,12,05,13.10
2010,05,24,12,06,13.10
2010,05,24,12,07,13.10
2010,05,24,12,08,13.20
2010,05,24,12,09,13.20
2010,05,24,12,10,13.30
2010,05,24,12,11,13.30
2010,05,24,12,12,13.40
2010,05,24,12,13,13.50
2010,05,24,12,14,13.50
2010,05,24,12,15,13.60
2010,05,24,12,16,13.70
2010,05,24,12,17,13.70
2010,05,24,12,18,13.70
2010,05,24,12,19,13.70
2010,05,24,12,20,13.80
2010,05,24,12,21,13.80
2010,05,24,12,22,13.80
2010,05,24,12,23,13.80
2010,05,24,12,24,13.90
2010,05,24,12,25,13.90
2010,05,24,12,26,13.90
2010,05,24,12,27,13.90
2010,05,24,12,28,13.90
2010,05,24,12,29,13.90
2010,05,24,12,30,14.00
2010,05,24,12,31,14.00
2010,05,24,12,32,14.10
2010,05,24,12,33,14.10
2010,05,24,12,34,14.10
2010,05,24,12,35,14.00
2010,05,24,12,36,13.90
2010,05,24,12,37,13.80
2010,05,24,12,38,13.70
2010,05,24,12,39,13.70
2010,05,24,12,40,13.70
2010,05,24,12,41,13.70
2010,05,24,12,42,13.70
2010,05,24,12,43,13.70
2010,05,24,12,44,13.60
2010,05,24,12,45,13.60
2010,05,24,12,46,13.50
2010,05,24,12,47,13.60
2010,05,24,12,48,13.60
2010,05,24,12,49,13.60
2010,05,24,12,50,13.60
2010,05,24,12,51,13.70
2010,05,24,12,52,13.70
2010,05,24,12,53,13.70
2010,05,24,12,54,13.70
2010,05,24,12,55,13.70
2010,05,24,12,56,13.80
2010,05,24,12,57,13.80
2010,05,24,12,58,13.80
2010,05,24,12,59,13.80
2010,05,24,13,00,13.90
2010,05,24,13,01,13.90
2010,05,24,13,02,14.00
2010,05,24,13,03,14.00
2010,05,24,13,04,14.10
2010,05,24,13,05,14.00
2010,05,24,13,06,14.00
2010,05,24,13,07,14.00
2010,05,24,13,08,13.90
2010,05,24,13,09,13.90
2010,05,24,13,10,13.90
2010,05,24,13,11,13.90
2010,05,24,13,12,13.90
2010,05,24,13,13,14.00
2010,05,24,13,14,14.10
2010,05,24,13,15,14.10
2010,05,24,13,16,14.20
2010,05,24,13,17,14.30
2010,05,24,13,18,14.30
2010,05,24,13,19,14.40
2010,05,24,13,20,14.40
2010,05,24,13,21,14.40
2010,05,24,13,22,14.50
2010,05,24,13,23,14.50
2010,05,24,13,24,14.50
2010,05,24,13,25,14.60
2010,05,24,13,26,14.60
2010,05,24,13,27,14.60
2010,05,24,13,28,14.50
2010,05,24,13,29,14.50
2010,05,24,13,30,14.50
2010,05,24,13,31,14.40
2010,05,24,13,32,14.40
2010,05,24,13,33,14.40
2010,05,24,13,34,14.40
2010,05,24,13,35,14.40
2010,05,24,13,36,14.40
2010,05,24,13,37,14.50
2010,05,24,13,38,14.50
2010,05,24,13,39,14.50
2010,05,24,13,40,14.50
2010,05,24,13,41,14.60
2010,05,24,13,42,14.60
2010,05,24,13,43,14.60
2010,05,24,13,44,14.60
2010,05,24,13,45,14.60
2010,05,24,13,46,14.60
2010,05,24,13,47,14.60
2010,05,24,13,48,14.60
2010,05,24,13,49,14.60
2010,05,24,13,50,14.60
2010,05,24,13,51,14.70
2010,05,24,13,52,14.70
2010,05,24,13,53,14.80
2010,05,24,13,54,14.80
2010,05,24,13,55,14.80
2010,05,24,13,56,14.80
2010,05,24,13,57,14.80
2010,05,24,13,58,14.90
2010,05,24,13,59,14.90
2010,05,24,14,00,14.90
2010,05,24,14,01,15.00
2010,05,24,14,02,15.10
2010,05,24,14,03,15.10
2010,05,24,14,04,15.10
2010,05,24,14,05,15.10
2010,05,24,14,06,15.10
2010,05,24,14,07,15.10
2010,05,24,14,08,15.20
2010,05,24,14,09,15.20
2010,05,24,14,10,15.20
2010,05,24,14,11,15.30
2010,05,24,14,12,15.30
2010,05,24,14,13,15.30
2010,05,24,14,14,15.20
2010,05,24,14,15,15.20
2010,05,24,14,16,15.20
2010,05,24,14,17,15.10
2010,05,24,14,18,15.10
2010,05,24,14,19,15.10
2010,05,24,14,20,15.20
2010,05,24,14,21,15.20
2010,05,24,14,22,15.30
2010,05,24,14,23,15.30
2010,05,24,14,24,15.40
2010,05,24,14,25,15.40
2010,05,24,14,26,15.30
2010,05,24,14,27,15.20
2010,05,24,14,28,15.20
2010,05,24,14,29,15.20
2010,05,24,14,30,15.20
2010,05,24,14,31,15.30
2010,05,24,14,32,15.30
2010,05,24,14,33,15.30
2010,05,24,14,34,15.30
2010,05,24,14,35,15.40
2010,05,24,14,36,15.40
2010,05,24,14,37,15.50
2010,05,24,14,38,15.50
2010,05,24,14,39,15.50
2010,05,24,14,40,15.60
2010,05,24,14,41,15.60
2010,05,24,14,42,15.60
2010,05,24,14,43,15.70
2010,05,24,14,44,15.70
2010,05,24,14,45,15.70
2010,05,24,14,46,15.70
2010,05,24,14,47,15.80
2010,05,24,14,48,15.80
2010,05,24,14,49,15.80
2010,05,24,14,50,15.90
2010,05,24,14,51,15.90
2010,05,24,14,52,15.90
2010,05,24,14,53,15.90
2010,05,24,14,54,15.80
2010,05,24,14,55,15.90
2010,05,24,14,56,15.80
2010,05,24,14,57,15.70
2010,05,24,14,58,15.70
2010,05,24,14,59,15.60
2010,05,24,15,00,15.60
2010,05,24,15,01,15.70
2010,05,24,15,02,15.70
2010,05,24,15,03,15.80
2010,05,24,15,04,15.90
2010,05,24,15,05,15.90
2010,05,24,15,06,15.90
2010,05,24,15,07,15.90
2010,05,24,15,08,15.80
2010,05,24,15,09,15.70
2010,05,24,15,10,15.60
2010,05,24,15,11,15.60
2010,05,24,15,12,15.70
2010,05,24,15,13,15.70
2010,05,24,15,14,15.70
2010,05,24,15,15,15.70
2010,05,24,15,16,15.80
2010,05,24,15,17,15.80
2010,05,24,15,18,15.80
2010,05,24,15,19,15.80
2010,05,24,15,20,15.80
2010,05,24,15,21,15.90
2010,05,24,15,22,16.00
2010,05,24,15,23,16.00
2010,05,24,15,24,16.10
2010,05,24,15,25,16.10
2010,05,24,15,26,16.10
2010,05,24,15,27,15.90
2010,05,24,15,28,15.80
2010,05,24,15,29,15.70
2010,05,24,15,30,15.60
2010,05,24,15,31,15.60
2010,05,24,15,32,15.60
2010,05,24,15,33,15.60
2010,05,24,15,34,15.50
2010,05,24,15,35,15.60
2010,05,24,15,36,15.60
2010,05,24,15,37,15.70
2010,05,24,15,38,15.70
2010,05,24,15,39,15.60
2010,05,24,15,40,15.60
2010,05,24,15,41,15.50
2010,05,24,15,42,15.50
2010,05,24,15,43,15.60
2010,05,24,15,44,15.60
2010,05,24,15,45,15.60
2010,05,24,15,46,15.60
2010,05,24,15,47,15.50
2010,05,24,15,48,15.40
2010,05,24,15,49,15.40
2010,05,24,15,50,15.40
2010,05,24,15,51,15.40
2010,05,24,15,52,15.30
2010,05,24,15,53,15.30
2010,05,24,15,54,15.40
2010,05,24,15,55,15.40
2010,05,24,15,56,15.50
2010,05,24,15,57,15.50
2010,05,24,15,58,15.60
2010,05,24,15,59,15.70
2010,05,24,16,00,15.70
2010,05,24,16,01,15.80
2010,05,24,16,02,15.80
2010,05,24,16,03,15.80
2010,05,24,16,04,15.90
2010,05,24,16,05,15.90
2010,05,24,16,06,15.90
2010,05,24,16,07,16.00
2010,05,24,16,08,16.00
2010,05,24,16,09,16.10
2010,05,24,16,10,16.10
2010,05,24,16,11,16.10
2010,05,24,16,12,16.10
2010,05,24,16,13,16.20
2010,05,24,16,14,16.20
2010,05,24,16,15,16.20
2010,05,24,16,16,16.20
2010,05,24,16,17,16.20
2010,05,24,16,18,16.20
2010,05,24,16,19,16.20
2010,05,24,16,20,16.10
2010,05,24,16,21,16.10
2010,05,24,16,22,16.10
2010,05,24,16,23,16.20
2010,05,24,16,24,16.20
2010,05,24,16,25,16.20
2010,05,24,16,26,16.20
2010,05,24,16,27,16.20
2010,05,24,16,28,16.20
2010,05,24,16,29,16.10
2010,05,24,16,30,16.10
2010,05,24,16,31,16.10
2010,05,24,16,32,16.00
2010,05,24,16,33,16.00
2010,05,24,16,34,15.90
2010,05,24,16,35,15.90
2010,05,24,16,36,15.80
2010,05,24,16,37,15.80
2010,05,24,16,38,15.70
2010,05,24,16,39,15.60
2010,05,24,16,40,15.60
2010,05,24,16,41,15.50
2010,05,24,16,42,15.50
2010,05,24,16,43,15.40
2010,05,24,16,44,15.40
2010,05,24,16,45,15.40
2010,05,24,16,46,15.40
2010,05,24,16,47,15.40
2010,05,24,16,48,15.40
2010,05,24,16,49,15.50
2010,05,24,16,50,15.50
2010,05,24,16,51,15.60
2010,05,24,16,52,15.60
2010,05,24,16,53,15.70
2010,05,24,16,54,15.70
2010,05,24,16,55,15.70
2010,05,24,16,56,15.80
2010,05,24,16,57,15.80
2010,05,24,16,58,15.70
2010,05,24,16,59,15.60
2010,05,24,17,00,15.60
2010,05,24,17,01,15.60
2010,05,24,17,02,15.60
2010,05,24,17,03,15.60
2010,05,24,17,04,15.60
2010,05,24,17,05,15.60
2010,05,24,17,06,15.70
2010,05,24,17,07,15.70
2010,05,24,17,08,15.80
2010,05,24,17,09,15.80
2010,05,24,17,10,15.80
2010,05,24,17,11,15.80
2010,05,24,17,12,15.80
2010,05,24,17,13,15.80
2010,05,24,17,14,15.80
2010,05,24,17,15,15.80
2010,05,24,17,16,15.90
2010,05,24,17,17,15.90
2010,05,24,17,18,15.90
2010,05,24,17,19,15.90
2010,05,24,17,20,15.90
2010,05,24,17,21,15.90
2010,05,24,17,22,16.00
2010,05,24,17,23,16.00
2010,05,24,17,24,16.00
2010,05,24,17,25,16.00
2010,05,24,17,26,16.00
2010,05,24,17,27,16.00
2010,05,24,17,28,16.00
2010,05,24,17,29,16.00
2010,05,24,17,30,15.90
2010,05,24,17,31,15.90
2010,05,24,17,32,15.90
2010,05,24,17,33,15.90
2010,05,24,17,34,15.90
2010,05,24,17,35,15.80
2010,05,24,17,36,15.80
2010,05,24,17,37,15.80
2010,05,24,17,38,15.80